COSMOS 2251 DEB, 34449

Orbit data source: Space-Track

COSMOS 2251 DEB, 34449 is space debris in LEO originally from a launch on Wed, 16 Jun 1993 UTC launched from the Plesetsk Missile And Space Complex (PKMTR). The debris from Iridium 33, an American commercial communications satellite, has been tracked extensively since its accidental collision with the defunct Russian satellite Cosmos 2251 in 2009. This event, occurring at high speed in low Earth orbit (LEO), generated thousands of pieces of space debris, significantly increasing the risk of further collisions. The Iridium 33 debris cloud has impacted space traffic management and orbital debris mitigation strategies, making it a subject of ongoing study in space situational awareness.

Loading next visibility...
Identifier
34449, 1993-036SS
Orbit
LEO
Country
Flag of CISCIS
Related business
Manufacturer
Unknown
Mission
Spacecraft
Bus & Motor
Unknown
Mass
Unknown
Launch date (UTC)
1993-06-16 (32 years ago)
Launch vehicle
Unknown
Launch site
Plesetsk Missile And Space Complex (PKMTR)
Object type
Payload
Rocket body
Debris
Shape & HBR
Unknown shape, 0.1 m
Radar Cross Section
Small (<0.1 m²)

Expand to show TLE details & history
Last TLE update: 18 hours ago

TLE from 18 hours ago
0 COSMOS 2251 DEB
1 34449U 93036SS  25303.05645691  .00031234  00000-0  31310-2 0  9997
2 34449  74.0329 158.3670 0031893 216.6759 267.0299 14.90833839880415
Epoch: 2025-10-30T01:21Z
TLE epoch observation values (Epoch: 2025-10-30T01:21:17.877Z)
Latitude
53.5467°
Longitude
-103.23606°
Altitude
604.997 km
Speed
7.562 km/s
True Right ascension
21h 02m 50s
True Declination
53° 22' 43"
Sunlit
Object was in daylight at epoch
Visualization orbit readout
Latitude
Unknown
Longitude
Unknown
Altitude
Unknown
Speed
Unknown
Apparent Right ascension
Unknown
Apparent Declination
Unknown
Sunlit
N/A
Visualization observer readout
Local Sidereal Time
14:51:33
Azimuth
Unknown
Elevation
Unknown
Doppler factor
Unknown
Orbital elements
Apogee altitude
615.131 km
Perigee altitude
570.665 km
Semi-major axis
6,971.035 km
Eccentricity
0.00319
Inclination
74.0329°
RAAN
158.367°
Arg. of periapsis
216.6759°
True anomaly
266.665°
Mean anomaly
267.0299°
Eccentric anomaly
266.84744°
Mean motion
3.72904 °/min
Orbital period
96.54 mins
BSTAR
0.003131

Documentation

Showing up to 5 results
|